{"data":{"norad_id":63062,"epoch":"2026-09-21T02:22:45.586272Z","epoch_age_seconds":113621,"freshness":"FRESH","line1":"1 63062U 25035L   26264.09913873  .00126345  00000+0  97333-3 0  9990","line2":"2 63062  42.9979 277.4797 0001704 185.9691 174.1157 15.70837354 91956","mean_motion":15.70837354,"eccentricity":0.0001704,"inclination_deg":42.9979,"raan_deg":277.4797,"arg_perigee_deg":185.9691,"mean_anomaly_deg":174.1157,"bstar":0.00097333,"rev_number":9195,"period_min":91.670852894678,"perigee_km":355.3550417504,"apogee_km":357.65020693438,"semimajor_km":6734.6396243424,"source":"CELESTRAK","updated_at":"2026-09-22T09:00:49.752327Z"}}